Time,TemperatureF,DewpointF,PressureIn,WindDirection,WindDirectionDegrees,WindSpeedMPH,WindSpeedGustMPH,Humidity,HourlyPrecipIn,Conditions,Clouds,dailyrainin,SoftwareType,DateUTC
2013-09-10 00:07:00,74.6,-99.9,30.18,North,5,6.0,-999.0,0,-99.99,,,0.00,weatherlink.com 1.10,2013-09-10 04:07:00,
2013-09-10 00:22:00,74.7,-99.9,30.18,North,5,4.0,-999.0,0,-99.99,,,0.00,weatherlink.com 1.10,2013-09-10 04:22:00,
2013-09-10 00:37:00,74.3,-99.9,30.18,North,5,2.0,-999.0,0,-99.99,,,0.00,weatherlink.com 1.10,2013-09-10 04:37:00,
2013-09-10 00:52:00,74.4,-99.9,30.18,North,5,3.0,-999.0,0,-99.99,,,0.00,weatherlink.com 1.10,2013-09-10 04:52:00,
2013-09-10 01:07:00,74.4,-99.9,30.18,North,5,4.0,-999.0,0,-99.99,,,0.00,weatherlink.com 1.10,2013-09-10 05:07:00,
2013-09-10 01:22:00,74.1,-99.9,30.18,North,5,3.0,-999.0,0,-99.99,,,0.00,weatherlink.com 1.10,2013-09-10 05:22:00,
2013-09-10 01:37:00,73.8,-99.9,30.19,North,5,2.0,-999.0,0,-99.99,,,0.00,weatherlink.com 1.10,2013-09-10 05:37:00,
2013-09-10 01:52:00,73.3,-99.9,30.18,North,5,5.0,-999.0,0,-99.99,,,0.00,weatherlink.com 1.10,2013-09-10 05:52:00,
2013-09-10 02:07:00,73.2,-99.9,30.19,North,5,5.0,-999.0,0,-99.99,,,0.00,weatherlink.com 1.10,2013-09-10 06:07:00,
2013-09-10 02:22:00,72.9,-99.9,30.18,North,5,7.0,-999.0,0,-99.99,,,0.00,weatherlink.com 1.10,2013-09-10 06:22:00,
2013-09-10 02:38:00,73.2,-99.9,30.18,North,5,10.0,-999.0,0,-99.99,,,0.00,weatherlink.com 1.10,2013-09-10 06:38:00,
2013-09-10 02:53:00,73.3,-99.9,30.18,North,5,6.0,-999.0,0,-99.99,,,0.00,weatherlink.com 1.10,2013-09-10 06:53:00,
2013-09-10 03:08:00,73.4,-99.9,30.18,North,5,7.0,-999.0,0,-99.99,,,0.00,weatherlink.com 1.10,2013-09-10 07:08:00,
2013-09-10 03:23:00,73.5,-99.9,30.19,North,5,5.0,-999.0,0,-99.99,,,0.00,weatherlink.com 1.10,2013-09-10 07:23:00,
2013-09-10 03:38:00,73.7,-99.9,30.19,North,5,7.0,-999.0,0,-99.99,,,0.00,weatherlink.com 1.10,2013-09-10 07:38:00,
2013-09-10 03:53:00,73.3,-99.9,30.19,North,5,5.0,-999.0,0,-99.99,,,0.00,weatherlink.com 1.10,2013-09-10 07:53:00,
2013-09-10 04:08:00,73.1,-99.9,30.18,North,5,6.0,-999.0,0,-99.99,,,0.00,weatherlink.com 1.10,2013-09-10 08:08:00,
2013-09-10 04:23:00,72.8,-99.9,30.19,North,5,6.0,-999.0,0,-99.99,,,0.00,weatherlink.com 1.10,2013-09-10 08:23:00,
2013-09-10 04:38:00,72.5,-99.9,30.19,North,5,4.0,-999.0,0,-99.99,,,0.00,weatherlink.com 1.10,2013-09-10 08:38:00,
2013-09-10 04:53:00,72.5,-99.9,30.19,North,5,5.0,-999.0,0,-99.99,,,0.00,weatherlink.com 1.10,2013-09-10 08:53:00,
2013-09-10 05:08:00,72.3,-99.9,30.19,North,5,2.0,-999.0,0,-99.99,,,0.00,weatherlink.com 1.10,2013-09-10 09:08:00,
2013-09-10 05:23:00,72.4,-99.9,30.20,North,5,5.0,-999.0,0,-99.99,,,0.00,weatherlink.com 1.10,2013-09-10 09:23:00,
2013-09-10 05:38:00,72.5,-99.9,30.20,North,5,5.0,-999.0,0,-99.99,,,0.00,weatherlink.com 1.10,2013-09-10 09:38:00,
2013-09-10 05:53:00,72.4,-99.9,30.20,North,5,6.0,-999.0,0,-99.99,,,0.00,weatherlink.com 1.10,2013-09-10 09:53:00,
2013-09-10 06:09:00,72.3,-99.9,30.20,North,5,5.0,-999.0,0,-99.99,,,0.00,weatherlink.com 1.10,2013-09-10 10:09:00,
2013-09-10 06:24:00,72.6,-99.9,30.21,North,5,5.0,-999.0,0,-99.99,,,0.00,weatherlink.com 1.10,2013-09-10 10:24:00,
2013-09-10 06:39:00,72.4,-99.9,30.21,North,5,5.0,-999.0,0,-99.99,,,0.00,weatherlink.com 1.10,2013-09-10 10:39:00,
2013-09-10 06:54:00,72.0,-99.9,30.21,North,5,5.0,-999.0,0,-99.99,,,0.00,weatherlink.com 1.10,2013-09-10 10:54:00,
2013-09-10 07:09:00,72.5,-99.9,30.22,North,5,6.0,-999.0,0,-99.99,,,0.00,weatherlink.com 1.10,2013-09-10 11:09:00,
2013-09-10 07:24:00,72.7,-99.9,30.23,North,5,4.0,-999.0,0,-99.99,,,0.00,weatherlink.com 1.10,2013-09-10 11:24:00,
2013-09-10 07:39:00,72.9,-99.9,30.23,North,5,2.0,-999.0,0,-99.99,,,0.00,weatherlink.com 1.10,2013-09-10 11:39:00,
2013-09-10 07:54:00,73.8,-99.9,30.23,North,5,2.0,-999.0,0,-99.99,,,0.00,weatherlink.com 1.10,2013-09-10 11:54:00,
2013-09-10 08:09:00,73.7,-99.9,30.23,North,5,5.0,-999.0,0,-99.99,,,0.00,weatherlink.com 1.10,2013-09-10 12:09:00,
2013-09-10 08:24:00,74.6,-99.9,30.24,North,5,7.0,-999.0,0,-99.99,,,0.00,weatherlink.com 1.10,2013-09-10 12:24:00,
2013-09-10 08:39:00,74.8,-99.9,30.24,North,5,4.0,-999.0,0,-99.99,,,0.00,weatherlink.com 1.10,2013-09-10 12:39:00,
2013-09-10 08:54:00,75.7,-99.9,30.24,North,5,4.0,-999.0,0,-99.99,,,0.00,weatherlink.com 1.10,2013-09-10 12:54:00,
2013-09-10 09:09:00,75.8,-99.9,30.24,North,5,4.0,-999.0,0,-99.99,,,0.00,weatherlink.com 1.10,2013-09-10 13:09:00,
2013-09-10 09:25:00,76.4,-99.9,30.25,North,5,6.0,-999.0,0,-99.99,,,0.00,weatherlink.com 1.10,2013-09-10 13:25:00,
2013-09-10 09:40:00,77.0,-99.9,30.25,North,5,8.0,-999.0,0,-99.99,,,0.00,weatherlink.com 1.10,2013-09-10 13:40:00,
2013-09-10 09:55:00,78.4,-99.9,30.25,North,5,4.0,-999.0,0,-99.99,,,0.00,weatherlink.com 1.10,2013-09-10 13:55:00,
2013-09-10 10:10:00,81.3,-99.9,30.26,North,5,4.0,-999.0,0,-99.99,,,0.00,weatherlink.com 1.10,2013-09-10 14:10:00,
2013-09-10 10:25:00,82.1,-99.9,30.26,North,5,3.0,-999.0,0,-99.99,,,0.00,weatherlink.com 1.10,2013-09-10 14:25:00,
2013-09-10 10:40:00,83.9,-99.9,30.25,North,5,4.0,-999.0,0,-99.99,,,0.00,weatherlink.com 1.10,2013-09-10 14:40:00,
2013-09-10 10:55:00,83.9,-99.9,30.25,North,5,4.0,-999.0,0,-99.99,,,0.00,weatherlink.com 1.10,2013-09-10 14:55:00,
2013-09-10 11:10:00,84.1,-99.9,30.25,North,5,5.0,-999.0,0,-99.99,,,0.00,weatherlink.com 1.10,2013-09-10 15:10:00,
2013-09-10 11:25:00,84.8,-99.9,30.25,North,5,5.0,-999.0,0,-99.99,,,0.00,weatherlink.com 1.10,2013-09-10 15:25:00,
2013-09-10 11:40:00,85.5,-99.9,30.25,North,5,7.0,-999.0,0,-99.99,,,0.00,weatherlink.com 1.10,2013-09-10 15:40:00,
2013-09-10 11:55:00,86.8,-99.9,30.25,North,5,3.0,-999.0,0,-99.99,,,0.00,weatherlink.com 1.10,2013-09-10 15:55:00,
2013-09-10 12:10:00,87.1,24.0,30.25,North,5,2.0,-999.0,10,-99.99,,,0.00,weatherlink.com 1.10,2013-09-10 16:10:00,
2013-09-10 12:25:00,86.1,-4.0,30.25,North,5,6.0,-999.0,3,-99.99,,,0.00,weatherlink.com 1.10,2013-09-10 16:25:00,
2013-09-10 12:40:00,83.6,-99.9,30.25,North,5,8.0,-999.0,0,-99.99,,,0.00,weatherlink.com 1.10,2013-09-10 16:40:00,
2013-09-10 12:56:00,83.3,-99.9,30.26,North,5,10.0,-999.0,0,-99.99,,,0.00,weatherlink.com 1.10,2013-09-10 16:56:00,
2013-09-10 13:11:00,82.5,-99.9,30.25,North,5,7.0,-999.0,0,-99.99,,,0.00,weatherlink.com 1.10,2013-09-10 17:11:00,
2013-09-10 13:26:00,82.1,-99.9,30.25,North,5,10.0,-999.0,0,-99.99,,,0.00,weatherlink.com 1.10,2013-09-10 17:26:00,
2013-09-10 13:41:00,81.5,-99.9,30.25,North,5,11.0,-999.0,0,-99.99,,,0.00,weatherlink.com 1.10,2013-09-10 17:41:00,
2013-09-10 13:56:00,82.4,-99.9,30.25,North,5,12.0,-999.0,0,-99.99,,,0.00,weatherlink.com 1.10,2013-09-10 17:56:00,
2013-09-10 14:11:00,83.2,-99.9,30.24,North,5,11.0,-999.0,0,-99.99,,,0.00,weatherlink.com 1.10,2013-09-10 18:11:00,
2013-09-10 14:26:00,84.2,-99.9,30.24,North,5,13.0,-999.0,0,-99.99,,,0.00,weatherlink.com 1.10,2013-09-10 18:26:00,
2013-09-10 14:41:00,84.6,30.0,30.23,North,5,12.0,-999.0,14,-99.99,,,0.00,weatherlink.com 1.10,2013-09-10 18:41:00,
2013-09-10 14:56:00,84.4,14.0,30.23,North,5,13.0,-999.0,7,-99.99,,,0.00,weatherlink.com 1.10,2013-09-10 18:56:00,
2013-09-10 15:11:00,84.5,40.0,30.23,North,5,16.0,-999.0,21,-99.99,,,0.00,weatherlink.com 1.10,2013-09-10 19:11:00,
2013-09-10 15:26:00,84.2,24.0,30.22,North,5,15.0,-999.0,11,-99.99,,,0.00,weatherlink.com 1.10,2013-09-10 19:26:00,
2013-09-10 15:41:00,83.2,-99.9,30.22,North,5,15.0,-999.0,0,-99.99,,,0.00,weatherlink.com 1.10,2013-09-10 19:41:00,
2013-09-10 15:56:00,82.7,-99.9,30.22,North,5,15.0,-999.0,0,-99.99,,,0.00,weatherlink.com 1.10,2013-09-10 19:56:00,
2013-09-10 16:11:00,82.9,-99.9,30.22,North,5,15.0,-999.0,0,-99.99,,,0.00,weatherlink.com 1.10,2013-09-10 20:11:00,
2013-09-10 16:27:00,82.5,-99.9,30.21,North,5,10.0,-999.0,0,-99.99,,,0.00,weatherlink.com 1.10,2013-09-10 20:27:00,
2013-09-10 16:42:00,82.5,-99.9,30.21,North,5,12.0,-999.0,0,-99.99,,,0.00,weatherlink.com 1.10,2013-09-10 20:42:00,
2013-09-10 16:57:00,82.5,-99.9,30.21,North,5,13.0,-999.0,0,-99.99,,,0.00,weatherlink.com 1.10,2013-09-10 20:57:00,
2013-09-10 17:12:00,82.0,-99.9,30.20,North,5,11.0,-999.0,0,-99.99,,,0.00,weatherlink.com 1.10,2013-09-10 21:12:00,
2013-09-10 17:27:00,81.6,-99.9,30.20,North,5,12.0,-999.0,0,-99.99,,,0.00,weatherlink.com 1.10,2013-09-10 21:27:00,
2013-09-10 17:42:00,81.1,-99.9,30.21,North,5,11.0,-999.0,0,-99.99,,,0.00,weatherlink.com 1.10,2013-09-10 21:42:00,
2013-09-10 17:57:00,80.6,-99.9,30.20,North,5,7.0,-999.0,0,-99.99,,,0.00,weatherlink.com 1.10,2013-09-10 21:57:00,
2013-09-10 18:12:00,80.2,-99.9,30.20,North,5,13.0,-999.0,0,-99.99,,,0.00,weatherlink.com 1.10,2013-09-10 22:12:00,
2013-09-10 18:27:00,79.2,-99.9,30.21,North,5,11.0,-999.0,0,-99.99,,,0.00,weatherlink.com 1.10,2013-09-10 22:27:00,
2013-09-10 18:42:00,78.6,-99.9,30.21,North,5,8.0,-999.0,0,-99.99,,,0.00,weatherlink.com 1.10,2013-09-10 22:42:00,
2013-09-10 18:57:00,78.2,-99.9,30.21,North,5,10.0,-999.0,0,-99.99,,,0.00,weatherlink.com 1.10,2013-09-10 22:57:00,
2013-09-10 19:12:00,78.1,-99.9,30.21,North,5,9.0,-999.0,0,-99.99,,,0.00,weatherlink.com 1.10,2013-09-10 23:12:00,
2013-09-10 19:27:00,77.8,-99.9,30.21,North,5,9.0,-999.0,0,-99.99,,,0.00,weatherlink.com 1.10,2013-09-10 23:27:00,
2013-09-10 19:42:00,77.6,-99.9,30.21,North,5,9.0,-999.0,0,-99.99,,,0.00,weatherlink.com 1.10,2013-09-10 23:42:00,
2013-09-10 19:58:00,77.5,-99.9,30.21,North,5,10.0,-999.0,0,-99.99,,,0.00,weatherlink.com 1.10,2013-09-10 23:58:00,
2013-09-10 20:13:00,77.3,-99.9,30.21,North,5,9.0,-999.0,0,-99.99,,,0.00,weatherlink.com 1.10,2013-09-11 00:13:00,
2013-09-10 20:28:00,77.3,-99.9,30.21,North,5,9.0,-999.0,0,-99.99,,,0.00,weatherlink.com 1.10,2013-09-11 00:28:00,
2013-09-10 20:43:00,77.3,-99.9,30.22,North,5,8.0,-999.0,0,-99.99,,,0.00,weatherlink.com 1.10,2013-09-11 00:43:00,
2013-09-10 20:58:00,77.2,-99.9,30.22,North,5,9.0,-999.0,0,-99.99,,,0.00,weatherlink.com 1.10,2013-09-11 00:58:00,
2013-09-10 21:13:00,77.1,-99.9,30.22,North,5,9.0,-999.0,0,-99.99,,,0.00,weatherlink.com 1.10,2013-09-11 01:13:00,
2013-09-10 21:28:00,77.0,-99.9,30.23,North,5,5.0,-999.0,0,-99.99,,,0.00,weatherlink.com 1.10,2013-09-11 01:28:00,
2013-09-10 21:43:00,77.0,-99.9,30.23,North,5,6.0,-999.0,0,-99.99,,,0.00,weatherlink.com 1.10,2013-09-11 01:43:00,
2013-09-10 21:58:00,77.1,-99.9,30.23,North,5,5.0,-999.0,0,-99.99,,,0.00,weatherlink.com 1.10,2013-09-11 01:58:00,
2013-09-10 22:13:00,77.8,-99.9,30.23,North,5,9.0,-999.0,0,-99.99,,,0.00,weatherlink.com 1.10,2013-09-11 02:13:00,
2013-09-10 22:28:00,78.8,-99.9,30.23,North,5,8.0,-999.0,0,-99.99,,,0.00,weatherlink.com 1.10,2013-09-11 02:28:00,
2013-09-10 22:43:00,79.0,-99.9,30.23,North,5,8.0,-999.0,0,-99.99,,,0.00,weatherlink.com 1.10,2013-09-11 02:43:00,
2013-09-10 22:58:00,79.0,-99.9,30.23,North,5,8.0,-999.0,0,-99.99,,,0.00,weatherlink.com 1.10,2013-09-11 02:58:00,
2013-09-10 23:14:00,79.4,-99.9,30.23,North,5,5.0,-999.0,0,-99.99,,,0.00,weatherlink.com 1.10,2013-09-11 03:14:00,
2013-09-10 23:29:00,79.4,-99.9,30.23,North,5,6.0,-999.0,0,-99.99,,,0.00,weatherlink.com 1.10,2013-09-11 03:29:00,
2013-09-10 23:44:00,79.5,-99.9,30.23,North,5,7.0,-999.0,0,-99.99,,,0.00,weatherlink.com 1.10,2013-09-11 03:44:00,
2013-09-10 23:59:00,79.7,-99.9,30.23,North,5,4.0,-999.0,0,-99.99,,,0.00,weatherlink.com 1.10,2013-09-11 03:59:00,